This demonstration page uses our WeatherBlox Daily Observations layout. Learn more.

38.88101, -77.10428

Hourly Observations for January 29, 2016

Temp ( °F °C ) Dew Point ( °F °C ) Humidity (%) Winds ( mph kmh ) Pressure ( in mb ) Visibility ( mi km ) Precip ( " mm )
12:52 am 00:52 Mostly Cloudy 36 2 27 -3 70 70 W 3 6 29.65 1004 10 16.09344 0 0
1:52 am 01:52 Mostly Cloudy 32 0 27 -3 80 80 S 7 11 29.62 1003 10 16.09344 0 0
2:52 am 02:52 Partly Cloudy 30 -1 27 -3 86 86 WSW 5 7 29.59 1002 10 16.09344 0 0
3:52 am 03:52 Clear 30 -1 27 -3 86 86 S 5 7 29.56 1001 10 16.09344 0 0
4:52 am 04:52 Mostly Clear 28 -2 27 -3 93 93 Calm 29.56 1001 10 16.09344 0 0
5:52 am 05:52 Mostly Cloudy 30 -1 27 -3 86 86 S 6 9 29.59 1002 10 16.09344 0 0
6:52 am 06:52 Mostly Cloudy 39 4 27 -3 61 61 W 10 17 29.59 1002 10 16.09344 0 0
7:52 am 07:52 Mostly Cloudy 37 3 27 -3 65 65 WSW 6 9 29.59 1002 10 16.09344 0 0
8:52 am 08:52 Mostly Cloudy 41 5 27 -3 57 57 W 7 11 29.62 1003 10 16.09344 0 0
9:52 am 09:52 Mostly Cloudy 43 6 27 -3 53 53 WNW 16 26 29.62 1003 10 16.09344 0 0
10:52 am 10:52 Cloudy 37 3 28 -2 70 70 WNW 13 20 29.68 1005 9 14.484096 0.001 0.001
11:52 am 11:52 Mostly Cloudy 41 5 21 -6 45 45 NW 25 41 29.65 1004 10 16.09344 0.01 0.254
12:52 pm 12:52 Mostly Cloudy with Scattered Snow Showers 39 4 21 -6 48 48 W 21 33 29.68 1005 9 14.484096 0.001 0.001
1:52 pm 13:52 Mostly Cloudy with Scattered Snow Showers 39 4 21 -6 48 48 NW 21 33 29.71 1006 9 14.484096 0.001 0.001
2:52 pm 14:52 Mostly Cloudy 39 4 18 -8 42 42 NW 21 33 29.74 1007 10 16.09344 0.001 0.001
3:52 pm 15:52 Mostly Cloudy 37 3 18 -8 45 45 WNW 24 39 29.77 1008 10 16.09344 0 0
4:52 pm 16:52 Mostly Cloudy 37 3 18 -8 45 45 NW 20 31 29.83 1010 10 16.09344 0 0
5:52 pm 17:52 Mostly Clear 36 2 18 -8 48 48 WNW 18 30 29.88 1012 10 16.09344 0 0
6:52 pm 18:52 Mostly Clear 36 2 18 -8 48 48 WNW 13 20 29.91 1013 10 16.09344 0 0
7:52 pm 19:52 Clear 34 1 18 -8 51 51 WNW 13 20 29.94 1014 10 16.09344 0 0
8:52 pm 20:52 Clear 34 1 16 -9 48 48 NW 13 20 29.94 1014 10 16.09344 0 0
9:52 pm 21:52 Clear 34 1 16 -9 48 48 NW 10 17 29.97 1015 10 16.09344 0 0
10:52 pm 22:52 Clear 32 0 16 -9 51 51 WNW 8 13 30 1016 10 16.09344 0 0
11:52 pm 23:52 Clear 30 -1 16 -9 55 55 W 6 9 30.03 1017 10 16.09344 0 0

Powered by AerisWeather